This is the latest recevied weather packets stored in our database for station/object KY0TEQ-13. If no packets are shown the sender has not sent any weather packets the latest 10 day(s).
| Time | Temp. | Humidity | Pressure | Rain* | Wind** | Luminosity | Snow |
|---|---|---|---|---|---|---|---|
| 1788419992 | 13.89° C | 62% | 1308.5 hPa | 0 mm | - | 0 W/m² | - |
| 1788419689 | 13.33° C | 63% | 1308.5 hPa | 0 mm | - | 0 W/m² | - |
| 1788419384 | 13.33° C | 64% | 1308.4 hPa | 0 mm | - | 0 W/m² | - |
| 1788419083 | 13.33° C | 64% | 1308.5 hPa | 0 mm | - | 0 W/m² | - |
| 1788418783 | 13.33° C | 63% | 1308.6 hPa | 0 mm | - | 0 W/m² | - |
| 1788418478 | 13.89° C | 62% | 1308.4 hPa | 0 mm | - | 0 W/m² | - |
| 1788418178 | 14.44° C | 60% | 1308.5 hPa | 0 mm | - | 0 W/m² | - |
| 1788417873 | 14.44° C | 58% | 1308.4 hPa | 0 mm | - | 0 W/m² | - |
| 1788417568 | 13.89° C | 60% | 1308.4 hPa | 0 mm | - | 0 W/m² | - |
| 1788417264 | 13.33° C | 63% | 1308.4 hPa | 0 mm | - | 0 W/m² | - |
| 1788416960 | 13.33° C | 65% | 1308.3 hPa | 0 mm | - | 0 W/m² | - |
| 1788416659 | 13.89° C | 62% | 1308.5 hPa | 0 mm | - | 0 W/m² | - |
| 1788416355 | 13.89° C | 62% | 1308.4 hPa | 0 mm | - | 0 W/m² | - |
| 1788416054 | 13.89° C | 62% | 1308.4 hPa | 0 mm | - | 0 W/m² | - |
| 1788415750 | 14.44° C | 62% | 1308.5 hPa | 0 mm | - | 0 W/m² | - |
| 1788415445 | 14.44° C | 62% | 1308.4 hPa | 0 mm | - | 0 W/m² | - |
| 1788415143 | 15° C | 59% | 1308.2 hPa | 0 mm | - | 0 W/m² | - |
| 1788414841 | 15° C | 58% | 1308.3 hPa | 0 mm | - | 0 W/m² | - |
| 1788414558 | 14.44° C | 61% | 1308.3 hPa | 0 mm | - | 0 W/m² | - |
| 1788414235 | 14.44° C | 59% | 1308.2 hPa | 0 mm | - | 0 W/m² | - |
| 1788413932 | 14.44° C | 61% | 1308.2 hPa | 0 mm | - | 0 W/m² | - |
| 1788413626 | 15.56° C | 56% | 1308.2 hPa | 0 mm | - | 0 W/m² | - |
| 1788413323 | 15° C | 57% | 1308.4 hPa | 0 mm | - | 0 W/m² | - |
| 1788413018 | 14.44° C | 60% | 1308.2 hPa | 0 mm | - | 0 W/m² | - |
| 1788412714 | 15° C | 59% | 1308.3 hPa | 0 mm | - | 0 W/m² | - |
* Rain latest hour (hover to see other rain measurements)
** Current wind speed in m/s (hover to see current wind gust speed)